TimeIST,TemperatureF,Dew PointF,Humidity,Sea Level PressureIn,VisibilityMPH,Wind Direction,Wind SpeedMPH,Gust SpeedMPH,PrecipitationIn,Events,Conditions,WindDirDegrees,DateUTC
2:30 AM,62,57,80,29.81,1,East,4.6,,,Rain-Thunderstorm,Thunderstorms and Rain,90,2014-03-17 21:00:00
5:30 AM,59.0,57.2,94,29.86,1.9,Calm,Calm,-,N/A,,Mostly Cloudy,0,2014-03-18 00:00:00
6:00 AM,59.0,57.2,94,29.89,1.9,Calm,Calm,-,N/A,,Mostly Cloudy,0,2014-03-18 00:30:00
6:30 AM,59.0,57.2,94,29.89,1.9,Calm,Calm,-,N/A,,Mostly Cloudy,0,2014-03-18 01:00:00
7:00 AM,59.0,57.2,94,29.92,1.9,Calm,Calm,-,N/A,,Mostly Cloudy,0,2014-03-18 01:30:00
7:30 AM,59.0,57.2,94,29.95,1.9,Calm,Calm,-,N/A,,Mostly Cloudy,0,2014-03-18 02:00:00
8:00 AM,60.8,59.0,94,29.95,3.1,Calm,Calm,-,N/A,,Scattered Clouds,0,2014-03-18 02:30:00
8:30 AM,62.6,59.0,88,29.95,3.1,Calm,Calm,-,N/A,,Partly Cloudy,0,2014-03-18 03:00:00
9:00 AM,64.4,59.0,83,29.98,3.7,Calm,Calm,-,N/A,,Partly Cloudy,0,2014-03-18 03:30:00
9:30 AM,66.2,60.8,83,30.01,3.7,Calm,Calm,-,N/A,,Partly Cloudy,0,2014-03-18 04:00:00
10:00 AM,69.8,60.8,73,30.01,3.7,East,4.6,-,N/A,,Partly Cloudy,90,2014-03-18 04:30:00
11:00 AM,71.6,60.8,69,30.04,3.7,Variable,3.5,-,N/A,,Unknown,0,2014-03-18 05:30:00
11:30 AM,73,61,57,30.02,2,,1.2,,,,,,2014-03-18 06:00:00
11:30 AM,73.4,60.8,65,30.04,3.7,Variable,1.2,-,N/A,,Unknown,0,2014-03-18 06:00:00
12:00 PM,75.2,60.8,61,30.04,3.7,Calm,Calm,-,N/A,,Unknown,0,2014-03-18 06:30:00
12:30 PM,75.2,59.0,57,30.04,3.7,Variable,1.2,-,N/A,,Partly Cloudy,0,2014-03-18 07:00:00
1:00 PM,75.2,59.0,57,30.04,3.7,Variable,2.3,-,N/A,,Partly Cloudy,0,2014-03-18 07:30:00
1:30 PM,75.2,60.8,61,30.04,3.7,Variable,4.6,-,N/A,,Scattered Clouds,0,2014-03-18 08:00:00
2:00 PM,75.2,59.0,57,30.01,3.7,West,5.8,-,N/A,,Scattered Clouds,280,2014-03-18 08:30:00
2:30 PM,77,60,45,29.98,2,WNW,4.6,,,,Partly Cloudy,290,2014-03-18 09:00:00
2:30 PM,77.0,59.0,54,30.01,3.7,Variable,4.6,102.4,N/A,,Scattered Clouds,0,2014-03-18 09:00:00
3:00 PM,77.0,60.8,57,30.01,3.7,West,4.6,-,N/A,,Scattered Clouds,270,2014-03-18 09:30:00
3:30 PM,77.0,59.0,54,29.98,3.7,Variable,4.6,-,N/A,,Scattered Clouds,0,2014-03-18 10:00:00
4:00 PM,77.0,59.0,54,29.98,3.7,WNW,9.2,-,N/A,,Scattered Clouds,300,2014-03-18 10:30:00
4:30 PM,77.0,60.8,57,29.98,3.7,WNW,8.1,-,N/A,,Scattered Clouds,300,2014-03-18 11:00:00
5:00 PM,77.0,60.8,57,29.98,3.7,NW,8.1,-,N/A,,Scattered Clouds,310,2014-03-18 11:30:00
5:30 PM,75,60,51,29.96,2,NW,9.2,,,,Scattered Clouds,320,2014-03-18 12:00:00
5:30 PM,75.2,60.8,61,29.98,3.7,NW,9.2,-,N/A,,Partly Cloudy,320,2014-03-18 12:00:00
6:30 PM,71.6,62.6,73,29.98,2.5,WNW,5.8,-,N/A,,Haze,300,2014-03-18 13:00:00
7:00 PM,68.0,62.6,83,29.98,2.5,WNW,4.6,-,N/A,,Haze,300,2014-03-18 13:30:00
7:30 PM,68.0,60.8,78,30.01,2.5,Calm,Calm,-,N/A,,Haze,0,2014-03-18 14:00:00
8:00 PM,66.2,60.8,83,30.01,2.5,Calm,Calm,-,N/A,,Haze,0,2014-03-18 14:30:00
8:30 PM,65,60,81,30.01,2,Calm,Calm,,,,Haze,,2014-03-18 15:00:00
8:30 PM,64.4,60.8,88,30.01,2.5,Calm,Calm,-,N/A,,Haze,0,2014-03-18 15:00:00
9:00 PM,64.4,60.8,88,30.01,2.5,WNW,4.6,-,N/A,,Haze,290,2014-03-18 15:30:00
9:30 PM,62.6,59.0,88,30.04,2.5,Variable,2.3,-,N/A,,Haze,0,2014-03-18 16:00:00
10:00 PM,62.6,59.0,88,30.04,2.5,Calm,Calm,-,N/A,,Haze,0,2014-03-18 16:30:00
10:30 PM,62.6,59.0,88,30.04,2.2,Calm,Calm,-,N/A,,Haze,0,2014-03-18 17:00:00
11:00 PM,60.8,59.0,94,30.01,2.2,Calm,Calm,-,N/A,,Haze,0,2014-03-18 17:30:00
11:30 PM,61,59,91,30.01,2,Calm,Calm,,,,Mist,,2014-03-18 18:00:00
11:30 PM,60.8,59.0,94,30.01,2.2,Calm,Calm,-,N/A,,Partly Cloudy,0,2014-03-18 18:00:00